Content
SEND FEEDBACK

Daily
Averages
Monthly
Summary
United States of America

CHICAGO, ILLINOIS


Home > North America > United States > Illinois
Elevation: 674 feet     Latitude: 41 59N     Longitude: 087 54W

WEATHER
 
SELECT A DAY
Number of Records: 194,774;   Date Range: 7/8/95 - 7/20/14
 
SHARE

PRINT THIS DATA

[ ← Previous Day ]
WEATHER ALMANAC - JANUARY 2, 2013
[ Next Day → ]
[ °C ]   °F
Weather ElementAverageHighLow
Temperature20.6 °F30 °F (2:52 pm)10.4 °F (1:45 am)
Dewpoint7.7 °F14 °F (5:52 pm)1 °F (7:52 am)
Humidity58.3 %72 % (10:52 pm)41 % (2:52 pm)
Barometer30.18 in30.25 in (9:52 am)30.12 in (11:52 pm)
Wind Speed7.8 mph12.7 mph (3:52 pm)
Weather ElementAverage
Visibility10 mi
Wind DirectionSSW (207.4 °)

Weather ElementTotal
Precipitation---
Heating Degree Days44.8 (Base 65)
Averaged from 23 records on January 2, 2013
WEATHER CONDITIONS BREAKOUT
WIND DIRECTION BREAKOUT
WEATHER BY HOUR - JANUARY 2, 2013
[ °C ]   °F
Local TimeTemperatureDewpointHumidityBarometerVisibilityWind DirectionWind SpeedGust SpeedPrecipitationEventsConditions
1:45 AM10.4 °F1.4 °F67 %30.18 in10.0 miWest (280°)3.5 mphMostly Cloudy
1:52 AM10.9 °F1.9 °F67 %30.22 in10.0 miWest (270°)4.6 mphMostly Cloudy
2:52 AM12.9 °F1.9 °F62 %30.22 in10.0 miCalmOvercast
3:52 AM14.0 °F3.0 °F62 %30.22 in10.0 miWSW (240°)3.5 mphOvercast
4:52 AM15.1 °F1.9 °F56 %30.20 in10.0 miWest (260°)3.5 mphOvercast
6:52 AM14.0 °F1.9 °F59 %30.24 in10.0 miWSW (250°)5.8 mphOvercast
7:29 AM12.2 °F1.4 °F62 %30.20 in10.0 miSW (230°)3.5 mphScattered Clouds
7:52 AM12.9 °F1.0 °F59 %30.24 in10.0 miWSW (250°)4.6 mphClear
9:52 AM19.0 °F3.9 °F52 %30.25 in10.0 miSSW (210°)6.9 mphScattered Clouds
10:52 AM21.9 °F7.0 °F53 %30.22 in10.0 miSSW (210°)8.1 mphClear
11:52 AM25.0 °F8.1 °F49 %30.18 in10.0 miSouth (190°)11.5 mphClear
12:52 PM27.0 °F7.0 °F43 %30.15 in10.0 miSouth (190°)11.5 mphClear
1:52 PM28.9 °F9.0 °F43 %30.13 in10.0 miSouth (190°)11.5 mphClear
2:52 PM30.0 °F9.0 °F41 %30.13 in10.0 miSSW (200°)9.2 mphClear
3:52 PM28.9 °F10.9 °F47 %30.13 in10.0 miSSW (200°)12.7 mphClear
4:52 PM28.0 °F12.9 °F53 %30.14 in10.0 miSouth (190°)12.7 mphClear
5:52 PM26.1 °F14.0 °F60 %30.15 in10.0 miSouth (190°)11.5 mphClear
6:52 PM24.1 °F14.0 °F65 %30.16 in10.0 miSouth (190°)11.5 mphClear
7:52 PM23.0 °F14.0 °F68 %30.16 in10.0 miSSW (200°)9.2 mphClear
8:52 PM23.0 °F12.9 °F65 %30.15 in10.0 miSSW (210°)9.2 mphClear
9:52 PM21.9 °F12.9 °F68 %30.14 in10.0 miSSW (200°)9.2 mphClear
10:52 PM21.9 °F14.0 °F72 %30.14 in10.0 miSSW (210°)8.1 mphOvercast
11:52 PM23.0 °F14.0 °F68 %30.12 in10.0 miSSW (210°)8.1 mphOvercast
Hourly data recorded from KPWK, located miles away from Chicago, Illinois







STORIES FROM OUR PARTNERS